Flag for U.S.A. Weather past 2 weeks in Menominee, Michigan, U.S.A.

Now
73 °F

Cloudy.


Feels Like: 75 °F
Forecast: 64 / 71 °F
Wind: 10 mph from East

Location: Menominee Weather Reporting Station

Current Time: Sep 3, 2015 at 1:13:48 PM

Latest Report: Sep 3, 2015 at 12:55 PM


Visibility: 10 mi

Pressure: 29.95 "Hg

Humidity: 74%

Dew point: 64 °F

Location of MenomineeLocation

Historic Weather in Menominee — Graph

°F

Menominee temperature yesterday

Maximum temperature yesterday: 82 °F (at 10:35 AM)
Minimum temperature yesterday: 64 °F (at 8:55 PM)
Average temperature yesterday: 72 °F

Past Weeks' High & Low Weather Summary

 TemperatureHumidityPressure
High86 °F (Sep 1, 2:55 PM)94% (Aug 30, 1:55 AM)30.18 "Hg (Aug 30, 1:55 AM)
Low46 °F (Aug 27, 5:55 AM)47% (Aug 21, 12:15 PM)29.52 "Hg (Aug 19, 11:55 AM)
Average64 °F74%29.95 "Hg
* Reported Aug 19 11:15 AM — Sep 3 11:55 AM, Menominee, Weather by CustomWeather, © 2015

Note: Actual official high and low records may vary slightly from our data, if they occured in-between our weather recording intervals... More about our weather records

Advertising

Menominee weather history for previous 24 hours

 ConditionsComfort  
Time TempWeatherWind HumidityBarometerVisibility
11:55 AM
Thu, Sep 3
70 °FCloudy.8 mph83%29.95 "Hg10 mi
11:35 AM70 °FMostly cloudy.7 mph83%29.95 "Hg10 mi
11:15 AM70 °FMostly cloudy.7 mph83%29.95 "Hg10 mi
10:55 AM68 °FLow clouds.8 mph88%29.94 "Hg10 mi
10:35 AM66 °FLow clouds.10 mph94%29.93 "Hg10 mi
10:15 AM66 °FLow clouds.10 mph94%29.93 "Hg10 mi
9:55 AM66 °FLow clouds.8 mph94%29.93 "Hg10 mi
9:35 AM66 °FLow clouds.9 mph94%29.93 "Hg10 mi
9:15 AM66 °FLow clouds.12 mph94%29.92 "Hg10 mi
8:55 AM66 °FLow clouds.9 mph94%29.92 "Hg3 mi
8:35 AM66 °FLow clouds.9 mph94%29.91 "Hg6 mi
8:15 AM66 °FLow clouds.9 mph88%29.91 "Hg3 mi
7:55 AM66 °FLow clouds.7 mph88%29.91 "Hg2 mi
7:35 AM66 °FLow clouds.9 mph88%29.91 "Hg2 mi
7:15 AM66 °FMostly cloudy.8 mph88%29.91 "Hg3 mi
6:55 AM66 °FLow clouds.9 mph88%29.91 "Hg3 mi
6:35 AM66 °FLow clouds.9 mph88%29.90 "Hg7 mi
6:15 AM66 °FLow clouds.9 mph88%29.90 "Hg9 mi
5:55 AM66 °FLow clouds.8 mph88%29.89 "Hg10 mi
5:35 AM66 °FLow clouds.6 mph88%29.88 "Hg10 mi
5:15 AM66 °FLow clouds.6 mph88%29.88 "Hg7 mi
4:55 AM66 °FLow clouds.6 mph88%29.88 "Hg5 mi
4:35 AM66 °FLow clouds.7 mph88%29.88 "Hg3 mi
4:15 AM66 °FLow clouds.5 mph88%29.88 "Hg2 mi
3:55 AM66 °FLow clouds.9 mph88%29.88 "Hg4 mi
3:35 AM66 °FLow clouds.9 mph94%29.89 "Hg5 mi
3:15 AM66 °FLow clouds.No wind94%29.88 "Hg3 mi
2:55 AM66 °FMostly cloudy.5 mph88%29.87 "Hg2 mi
2:35 AM66 °FMostly cloudy.5 mph88%29.87 "Hg1 mi
2:15 AM66 °FMostly cloudy.6 mph88%29.88 "Hg3 mi
1:55 AM66 °FMostly cloudy.8 mph88%29.89 "Hg6 mi
1:35 AM66 °FThunderstorms. Overcast.7 mph88%29.90 "Hg5 mi
1:15 AM66 °FThunderstorms. Mostly cloudy.8 mph88%29.92 "Hg3 mi
12:55 AM66 °FMostly cloudy.6 mph88%29.92 "Hg5 mi
12:35 AM66 °FLow clouds.7 mph88%29.92 "Hg3 mi
12:15 AM66 °FMostly cloudy.3 mph88%29.93 "Hg6 mi
11:35 PM
Wed, Sep 2
66 °FMostly cloudy.N/A88%29.93 "Hg5 mi
10:35 PM66 °FThunderstorms. Mostly cloudy.5 mph88%29.95 "Hg7 mi
10:15 PM66 °FPassing clouds.5 mph88%29.92 "Hg10 mi
9:55 PM66 °FThundershowers. Passing clouds.8 mph88%29.92 "Hg10 mi
9:35 PM66 °FThundershowers. Passing clouds.6 mph83%29.92 "Hg10 mi
9:15 PM66 °FPassing clouds.No wind83%29.93 "Hg10 mi
8:55 PM64 °FPassing clouds.9 mph88%29.92 "Hg10 mi
8:15 PM66 °FPassing clouds.6 mph88%29.92 "Hg10 mi
7:55 PM66 °FPassing clouds.7 mph88%29.92 "Hg10 mi
7:35 PM66 °FPassing clouds.8 mph88%29.92 "Hg10 mi
7:15 PM68 °FSunny.8 mph83%29.91 "Hg10 mi
6:55 PM68 °FSunny.7 mph83%29.91 "Hg10 mi
6:35 PM68 °FSunny.5 mph83%29.91 "Hg10 mi
6:15 PM66 °FPassing clouds.3 mph88%29.93 "Hg10 mi
5:55 PM66 °FPassing clouds.6 mph88%29.93 "Hg10 mi
4:35 PM66 °FThunderstorms. More clouds than sun.7 mph88%29.95 "Hg8 mi
3:55 PM70 °FThunderstorms. Mostly cloudy.8 mph78%29.97 "Hg6 mi
3:35 PM73 °FThunderstorms. Overcast.13 mph74%29.93 "Hg10 mi
3:15 PM73 °FPartly sunny.7 mph74%29.94 "Hg10 mi
2:55 PM75 °FPassing clouds.12 mph69%29.94 "Hg10 mi
2:35 PM79 °FSunny.12 mph65%29.94 "Hg10 mi
2:15 PM77 °FPassing clouds.8 mph65%29.96 "Hg10 mi
1:55 PM72 °FPartly sunny.10 mph73%29.97 "Hg10 mi
1:35 PM73 °FCloudy.12 mph74%29.97 "Hg9 mi
1:15 PM75 °FOvercast.13 mph74%29.96 "Hg7 mi
Weather by CustomWeather, © 2015

See weather overviewHow to use our weather pages